Location: Courcelles
(49.2596°N, 1.7419°E)
Time: 05:43:09
(UTC+00:00)

Cosmos 1140 Rocket - Pass Details

Date: 17 November 2025
Orbit: 740 x 761 km, 74.1° (Epoch: 10 December)

Event Time Altitude Azimuth Distance (km) Brightness Sun altitude
Rises 17:33:58 0° 214° (SW) 3,198 7.5 -13.7°
Reaches altitude 10° 17:36:23 10° 218° (SW) 2,274 6.7 -14.1°
Maximum altitude 17:41:27 57° 298° (WNW) 884 4.1 -14.9°
Drops below altitude 10° 17:46:32 10° 17° (NNE) 2,276 5.7 -15.8°
Enters shadow 17:47:50 - 20° (NNE) 2,770 6.1 -16.0°
